Weather reports worldwide

Advertisment
Cassley, United Kingdom (99003): temperature & dewpoint: 19.09.2018 22:00:00 - 25.09.2018 22:00:00 (BST)Cassley, United Kingdom (99003): precipitation: 19.09.2018 22:00:00 - 25.09.2018 22:00:00 (BST)
Date & Time tt [°C] td [°C] rr [mm]
25.09.2018 22:00:00 15,3 13,2 1,4
25.09.2018 21:00:00 14,1 12,2 1,6
25.09.2018 20:00:00 14,7 12,1 0,2
25.09.2018 19:00:00 15,2 11,4 0,0
25.09.2018 18:00:00 15,2 10,8 0,0
25.09.2018 17:00:00 15,9 10,2 0,0
25.09.2018 16:00:00 15,1 9,8 0,0
25.09.2018 15:00:00 12,4 8,8 0,0
25.09.2018 14:00:00 11,2 8,8 0,4
25.09.2018 13:00:00 12,2 6,4 0,0
25.09.2018 12:00:00 12,2 5,0 0,0
25.09.2018 11:00:00 11,0 3,1 0,0
25.09.2018 10:00:00 10,5 4,8 0,0
25.09.2018 09:00:00 9,9 5,0 0,0
25.09.2018 08:00:00 8,7 5,8 0,0
25.09.2018 07:00:00 8,6 5,2 0,0
25.09.2018 06:00:00 10,1 4,9 0,0
25.09.2018 05:00:00 10,4 5,2 0,0
25.09.2018 04:00:00 9,6 6,0 0,0
25.09.2018 03:00:00 10,4 6,0 0,0
25.09.2018 02:00:00 10,6 7,4 0,0
25.09.2018 01:00:00 10,3 8,1 1,0
25.09.2018 00:00:00 10,2 8,0 0,4
24.09.2018 23:00:00 10,8 7,6 0,8
24.09.2018 22:00:00 10,0 7,4 1,0
24.09.2018 21:00:00 9,5 7,9 0,4
24.09.2018 20:00:00 9,7 5,9 0,0
24.09.2018 19:00:00 10,3 6,0 0,0
24.09.2018 18:00:00 10,7 5,1 0,0
24.09.2018 17:00:00 10,4 6,3 0,0
24.09.2018 16:00:00 11,5 5,5 0,0
24.09.2018 15:00:00 9,8 7,3 1,0
24.09.2018 14:00:00 9,4 7,1 0,4
24.09.2018 13:00:00 10,8 5,0 0,0
24.09.2018 12:00:00 11,5 6,6 0,0
24.09.2018 11:00:00 9,2 7,0 0,2
24.09.2018 10:00:00 10,0 6,6 0,2
24.09.2018 09:00:00 8,3 6,1 0,2
24.09.2018 08:00:00 7,4 5,4 0,0
24.09.2018 07:00:00 7,6 5,5 0,0
24.09.2018 06:00:00 7,5 5,3 0,0
24.09.2018 05:00:00 7,2 5,2 0,0
24.09.2018 04:00:00 6,8 5,3 0,8
24.09.2018 03:00:00 7,2 5,1 0,0
24.09.2018 02:00:00 6,6 4,3 2,0
24.09.2018 01:00:00 6,1 5,0 3,2
24.09.2018 00:00:00 6,5 4,0 0,4
23.09.2018 23:00:00 7,9 4,5 0,0
23.09.2018 22:00:00 7,0 4,3 0,4
23.09.2018 21:00:00 6,0 3,9 0,6
23.09.2018 20:00:00 6,3 4,1 0,0
23.09.2018 19:00:00 6,9 4,6 0,0
23.09.2018 18:00:00 7,6 3,9 0,2
23.09.2018 17:00:00 8,7 5,0 0,4
23.09.2018 16:00:00 7,8 5,8 0,8
23.09.2018 15:00:00 10,3 5,0 0,0
23.09.2018 14:00:00 9,9 5,1 0,6
23.09.2018 13:00:00 10,2 6,0 0,0
23.09.2018 12:00:00 9,1 5,8 0,0
23.09.2018 11:00:00 6,7 4,7 1,0
23.09.2018 10:00:00 6,7 4,4 0,4
23.09.2018 09:00:00 5,5 4,9 2,0
23.09.2018 08:00:00 3,5 3,0 0,0
23.09.2018 07:00:00 4,7 3,8 0,8
23.09.2018 06:00:00 3,7 2,8 0,0
23.09.2018 05:00:00 4,4 3,3 1,4
23.09.2018 04:00:00 5,8 4,7 2,6
23.09.2018 03:00:00 5,7 5,0 0,4
23.09.2018 02:00:00 5,3 3,9 0,0
23.09.2018 01:00:00 6,2 4,1 0,8
23.09.2018 00:00:00 4,3 2,9 0,0
22.09.2018 23:00:00 4,9 3,3 0,0
22.09.2018 22:00:00 5,4 2,8 0,0
22.09.2018 21:00:00 6,1 4,3 0,0
22.09.2018 20:00:00 6,3 3,7 0,0
22.09.2018 19:00:00 7,9 5,5 0,0
22.09.2018 18:00:00 8,7 4,6 0,0
22.09.2018 17:00:00 9,6 5,2 0,0
22.09.2018 16:00:00 9,0 6,9 0,2
22.09.2018 15:00:00 9,3 7,5 0,2
22.09.2018 14:00:00 9,3 6,9 0,4
22.09.2018 13:00:00 9,2 6,9 0,2
22.09.2018 12:00:00 8,4 6,7 1,0
22.09.2018 11:00:00 8,6 6,7 1,0
22.09.2018 10:00:00 8,2 6,2 0,4
22.09.2018 09:00:00 7,3 6,1 0,6
22.09.2018 08:00:00 7,7 6,6 2,2
22.09.2018 07:00:00 7,7 7,0 2,8
22.09.2018 06:00:00 8,2 7,8 2,6
22.09.2018 05:00:00 7,6 7,1 1,8
22.09.2018 04:00:00 7,7 5,9 0,6
22.09.2018 03:00:00 7,7 5,0 0,0
22.09.2018 02:00:00 8,0 5,0 0,4
22.09.2018 01:00:00 8,0 5,0 0,4
22.09.2018 00:00:00 8,4 5,7 0,2
21.09.2018 23:00:00 8,3 5,2 0,0
21.09.2018 22:00:00 7,6 4,9 0,2
21.09.2018 21:00:00 6,8 4,9 0,8
21.09.2018 20:00:00 7,8 5,9 1,0
21.09.2018 19:00:00 9,0 5,2 0,0
21.09.2018 18:00:00 9,0 6,0 0,0
21.09.2018 17:00:00 8,8 5,8 0,4
21.09.2018 16:00:00 9,3 7,2 0,2
21.09.2018 15:00:00 8,3 5,7 0,2
21.09.2018 14:00:00 10,8 4,1 0,0
21.09.2018 13:00:00 9,8 4,3 0,0
21.09.2018 12:00:00 9,2 4,4 0,0
21.09.2018 11:00:00 8,6 5,2 0,0
21.09.2018 10:00:00 8,0 6,0 0,4
21.09.2018 09:00:00 7,4 5,4 0,6
21.09.2018 08:00:00 7,0 5,4 0,6
21.09.2018 07:00:00 7,8 7,0 0,4
21.09.2018 06:00:00 8,3 6,3 0,0
21.09.2018 05:00:00 7,8 6,4 0,0
21.09.2018 04:00:00 7,6 6,2 0,0
21.09.2018 03:00:00 8,1 6,8 0,0
21.09.2018 02:00:00 8,3 6,6 0,0
21.09.2018 01:00:00 7,6 6,6 0,0
21.09.2018 00:00:00 7,8 6,4 0,0
20.09.2018 23:00:00 7,8 6,5 0,0
20.09.2018 22:00:00 8,7 6,7 0,2
20.09.2018 21:00:00 9,0 7,0 0,0
20.09.2018 20:00:00 9,3 7,6 0,0
20.09.2018 19:00:00 9,4 7,5 1,0
20.09.2018 18:00:00 10,1 8,0 0,4
20.09.2018 17:00:00 10,8 7,6 0,0
20.09.2018 16:00:00 11,2 6,9 0,0
20.09.2018 15:00:00 11,5 6,7 0,0
20.09.2018 14:00:00 11,2 8,1 0,2
20.09.2018 13:00:00 11,2 9,2 1,4
20.09.2018 12:00:00 10,2 8,4 1,6
20.09.2018 11:00:00 10,3 8,0 1,8
20.09.2018 10:00:00 9,8 7,2 3,4
20.09.2018 09:00:00 9,3 5,2 0,2
20.09.2018 08:00:00 10,0 2,9 0,0
20.09.2018 07:00:00 10,3 3,8 0,2
20.09.2018 06:00:00 8,8 5,7 0,4
20.09.2018 05:00:00 10,1 5,2 0,0
20.09.2018 04:00:00 9,2 5,3 1,6
20.09.2018 03:00:00 9,7 5,4 3,2
20.09.2018 02:00:00 9,7 5,9 1,2
20.09.2018 01:00:00 10,5 5,5 0,2
20.09.2018 00:00:00 10,2 5,5 0,0
19.09.2018 23:00:00 10,1 5,6 2,8
19.09.2018 22:00:00 9,7 6,0 0,4

tt = temperature
td = dewpoint
rr = precipitation

Next stations